Regional Weather Roundup
Issued by NWS Raleigh/Durham, NC

Home | Current Version | Previous Version | Text Only | Print | Product List | Glossary On
Versions: 1 2 3 4 5 6 7 8 9 10 11 12 13 14 15 16 17 18 19 20 21 22 23 24 25 26 27
000
ASUS42 KRAH 241610
RWRRAH
NORTH CAROLINA WEATHER ROUNDUP
NATIONAL WEATHER SERVICE RALEIGH NC
1200 PM EDT FRI OCT 24 2014

NOTE: "FAIR" INDICATES FEW OR NO CLOUDS BELOW 12,000 FEET WITH NO
SIGNIFICANT WEATHER AND/OR OBSTRUCTIONS TO VISIBILITY.

NCZ001-053-055-056-065-067-241700-
WESTERN NORTH CAROLINA

CITY           SKY/WX    TMP DP  RH WIND       PRES   REMARKS
ASHEVILLE      PTSUNNY   56  41  57 VRB5      30.10F
JEFFERSON      CLOUDY    56  37  50 E3        30.09F
MORGANTON      PTSUNNY   58  43  56 CALM      30.13S
HICKORY        PTSUNNY   59  41  51 SW5       30.08F
RUTHERFORDTON  PTSUNNY   60  39  45 CALM      30.10S
MOUNT AIRY     MOSUNNY   63  42  46 N5        30.09F
BOONE          PTSUNNY   55  30  38 NW6       30.10F
$$

NCZ021-022-025-041-071-084-088-241700-
CENTRAL NORTH CAROLINA

CITY           SKY/WX    TMP DP  RH WIND       PRES   REMARKS
CHARLOTTE      PTSUNNY   64  40  41 VRB3      30.09S
GREENSBORO     PTSUNNY   63  40  42 N3        30.06S
WINSTON-SALEM  MOSUNNY   65  40  39 CALM      30.07F
RALEIGH-DURHAM MOSUNNY   63  44  50 CALM      30.05F
FORT BRAGG     MOSUNNY   65  46  49 NW3       30.05F
FAYETTEVILLE   MOSUNNY   65  44  46 VRB3      30.05F
BURLINGTON     SUNNY     64  41  42 N5        30.05F
LAURINBURG     MOSUNNY   66  44  45 N3        30.07F
$$

NCZ011-015-027-028-043-044-047-080-103-241700-
NORTHEASTERN NORTH CAROLINA

CITY           SKY/WX    TMP DP  RH WIND       PRES   REMARKS
ROCKY MT-WILSO MOSUNNY   65  46  50 VRB3      30.04F
GREENVILLE     MOSUNNY   63  46  55 N3        30.05F
WASHINGTON     MOSUNNY   62  48  59 W5        30.03F
ELIZABETH CITY MOSUNNY   67  48  50 N13G18    29.99R
MANTEO         CLOUDY    60  47  62 NW10G16   30.00R
CAPE HATTERAS  CLOUDY    62  50  64 NW9       30.00S
$$

NCZ078-087-090-091-093-098-101-241700-
SOUTHEASTERN NORTH CAROLINA

CITY           SKY/WX    TMP DP  RH WIND       PRES   REMARKS
LUMBERTON      SUNNY     65  45  48 NW3       30.06S
GOLDSBORO      MOSUNNY   64  51  61 VRB3      30.02F
KINSTON        MOSUNNY   64  46  52 N7        30.04F
KENANSVILLE    MOSUNNY   63  45  51 CALM      30.05F
NEW BERN       MOSUNNY   67  45  45 VRB5      30.04F
CHERRY POINT   MOSUNNY   66  45  46 N8        30.04F
BEAUFORT       MOSUNNY   65  46  50 N8        30.03F
JACKSONVILLE   MOSUNNY   62  46  55 VRB3      30.04F
WILMINGTON     PTSUNNY   65  48  54 VRB5      30.05S
$$




USA.gov is the U.S. government's official web portal to all federal, state and local government web resources and services.